Location: Baia Mare
(47.6567°N, 23.5850°E)
Time: 02:07:54

ISS - Pass Details

Date: 28 March 2018
Orbit: 403 x 406 km, 51.6° (Epoch: 24 March)

Event Time Altitude Azimuth Distance (km) Brightness Sun altitude
Rises 21:27:58 0° 257° (WSW) 2,321 0.9 -16.8°
Reaches altitude 10° 21:30:03 10° 261° (W) 1,463 -0.2 -17.1°
Maximum altitude 21:33:18 60° 342° (NNW) 472 -3.4 -17.6°
Enters shadow 21:34:32 33° 49° (NE) 708 -2.9 -17.8°
